Regional Weather Roundup
Issued by NWS New Orleans/Baton Rouge, LA

Home | Current Version | Previous Version | Text Only | Print | Product List | Glossary Off
Versions: 1 2 3 4 5 6 7 8 9 10 11 12 13 14 15 16 17 18 19 20 21 22 23 24 25 26 27 28 29 30 31 32 33 34 35 36 37 38 39 40 41 42 43 44 45 46 47 48 49 50

531
ASUS44 KLIX 171701
RWRLIX
NEW ORLEANS REGIONAL WEATHER ROUNDUP
NATIONAL WEATHER SERVICE NEW ORLEANS LA
1200 PM CDT THU APR 17 2014

NOTE: "FAIR" INDICATES FEW OR NO CLOUDS BELOW 12,000 FEET WITH NO
      SIGNIFICANT WEATHER AND/OR OBSTRUCTIONS TO VISIBILITY.
      SKY/WX - SKY CONDITION AND SIGNIFICANT WEATHER.
      TMP - AIR TEMPERATURE.     DP    - DEWPOINT TEMPERATURE.
      RH  - RELATIVE HUMIDITY.   PRES  - PRESSURE.
      HI  - HEAT INDEX.          WCI   - WIND CHILL INDEX.

*  THESE STATIONS ARE NOT NWS OR FAA STATIONS AND ARE NOT UNDER
   NWS QUALITY CONTROL.

LAZ038-040-048-061>063-065>067-069-171800-
SOUTHEAST LOUISIANA

CITY           SKY/WX    TMP DP  RH WIND       PRES   REMARKS
N.O. AUDUBON   NOT AVBL
N.O. INTL ARPT CLOUDY    64  56  75 E8        30.21S
N.O. LAKEFRONT CLOUDY    63  58  83 E12       30.22R
N.O. DOWNTOWN* CLOUDY    64  55  72 E7        30.22S
SLIDELL        CLOUDY    65  56  72 VRB6      30.21R
BATON ROUGE    CLOUDY    66  52  60 E10       30.20S
BOOTHVILLE     PTSUNNY   71  63  75 NE6       30.18R
BELLE CHASSE   CLOUDY    66  58  75 NE10      30.21R
BOGALUSA*      NOT AVBL
GALLIANO*      NOT AVBL
NEW ROADS*     NOT AVBL
GONZALES*      NOT AVBL
HAMMOND*       NOT AVBL
HOUMA*         PTSUNNY   66  55  68 NE10      30.17S
PORT FOURCHON* PTSUNNY   66  59  77 NE13      30.17F

$$

MSZ070-080>082-171800-
SOUTHERN MISSISSIPPI

CITY           SKY/WX    TMP DP  RH WIND       PRES   REMARKS
MCCOMB         PTSUNNY   63  52  67 SE7       30.22S
GULFPORT       CLOUDY    66  55  67 E13       30.21R
BILOXI         PTSUNNY   66  57  73 SE13G18   30.22R
PASCAGOULA     CLOUDY    67  56  67 E9        30.21S
STENNIS ARPT*  CLOUDY    64  55  72 E8        30.22R

$$

COASTAL OBSERVATIONS
LAKE AND NEARSHORE STATIONS

STATION/POSITION TIME  TEMP    WIND        PRES    WAVE
                       AIR SEA DIR/SP/G            HT/PER
                 (UTC) (F)     (DEG/KT/KT) (MB)    (FT/S)
PASCAGOULA       1600   64      80/ 15/ 20 1022.5
WAVELAND YACHT   1600   62 65  100/ 18/ 22 1022.1
GRAND ISLE       1600   67 66   70/  5/  7 1022.5
SOUTHWEST PASS   1600   75 58   60/  9/ 10 1021.1
NEW CANAL        1600   61 63   50/  6/  7 1023.4
SHELL BEACH      1600   63 61   70/ 18/ 20 1022.0

OFFSHORE STATIONS

STATION/POSITION TIME  TEMP    WIND        PRES    WAVE
                       AIR SEA DIR/SP/G            HT/PER
                 (UTC) (F)     (DEG/KT/KT) (MB)    (FT/S)
64 S DAUPHIN ISL 1553   66 71   80/ 25/ 29 1021.7

$$




USA.gov is the U.S. government's official web portal to all federal, state and local government web resources and services.